This demonstration page uses our WeatherBlox Daily Observations layout. Learn more.

Left ArrowRight Arrow

41.12389, -100.76542

Hourly Observations for March 1, 2018

Temp ( °F °C ) Dew Point ( °F °C ) Humidity (%) Winds ( mph kmh ) Pressure ( in mb ) Visibility ( mi km ) Precip ( " mm )
12:53 am 00:53 Clear 24 -4.4 17 -8.3 75 75 Calm 30.15 1021 10 16 0.00 0.00
1:53 am 01:53 Clear 23 -5 17 -8.3 78 78 NW 5 7 30.17 1022 10 16 0.00 0.00
2:53 am 02:53 Clear 21 -6.1 16 -8.9 81 81 Calm 30.17 1022 10 16 0.00 0.00
3:53 am 03:53 Clear 21 -6.1 17 -8.3 85 85 Calm 30.18 1022 10 16 0.00 0.00
4:53 am 04:53 Clear 19 -7.2 16 -8.9 88 88 NW 6 9 30.20 1023 10 16 0.00 0.00
5:53 am 05:53 Clear 18 -7.8 14 -10 84 84 WNW 6 9 30.23 1024 10 16 0.00 0.00
6:53 am 06:53 Clear 18 -7.8 14 -10 84 84 NW 6 9 30.27 1025 10 16 0.00 0.00
7:53 am 07:53 Sunny 21 -6.1 16 -8.9 81 81 NW 5 7 30.29 1026 10 16 0.00 0.00
8:53 am 08:53 Sunny 28 -2.2 23 -5 81 81 WNW 6 9 30.30 1026 10 16 0.00 0.00
9:53 am 09:53 Sunny 33 0.6 24 -4.4 70 70 WNW 3 6 30.29 1026 10 16 0.00 0.00
10:53 am 10:53 Sunny 39 3.9 25 -3.9 57 57 W 5 7 30.30 1026 10 16 0.00 0.00
11:53 am 11:53 Sunny 43 6.1 23 -5 45 45 SW 5 7 30.29 1026 10 16 0.00 0.00
12:53 pm 12:53 Sunny 45 7.2 20 -6.7 37 37 S 12 19 30.27 1025 10 16 0.00 0.00
1:53 pm 13:53 Sunny 46 7.8 20 -6.7 35 35 S 12 19 30.24 1024 10 16 0.00 0.00
2:53 pm 14:53 Sunny 47 8.3 20 -6.7 34 34 S 13 20 30.22 1023 10 16 0.00 0.00
3:53 pm 15:53 Sunny 48 8.9 21 -6.1 34 34 S 16 26 30.21 1023 10 16 0.00 0.00
4:53 pm 16:53 Sunny 48 8.9 23 -5 37 37 S 10 17 30.20 1023 10 16 0.00 0.00
5:53 pm 17:53 Sunny 46 7.8 22 -5.6 38 38 SE 6 9 30.20 1023 10 16 0.00 0.00
6:53 pm 18:53 Clear 39 3.9 21 -6.1 48 48 SE 8 13 30.22 1023 10 16 0.00 0.00
7:53 pm 19:53 Clear 31 -0.6 20 -6.7 64 64 ESE 7 11 30.24 1024 10 16 0.00 0.00
8:53 pm 20:53 Clear 33 0.6 22 -5.6 64 64 ESE 9 15 30.22 1023 10 16 0.00 0.00
9:53 pm 21:53 Clear 34 1.1 20 -6.7 56 56 E 8 13 30.21 1023 10 16 0.00 0.00
10:53 pm 22:53 Clear 37 2.8 18 -7.8 46 46 ESE 12 19 30.19 1022 10 16 0.00 0.00
11:53 pm 23:53 Mostly Clear 37 2.8 19 -7.2 48 48 ESE 12 19 30.16 1021 10 16 0.00 0.00

Powered by AerisWeather